Home > Time Zones > World Clock > Weather > Aktau > Past weeks

Flag for Kazakhstan Weather past 2 weeks in Aktau, Kazakhstan

Now
84 °F

Duststorm.


Feels Like: 81 °F
Forecast: 66 / 78 °F
Wind: 20 mph from South

Location: Aktau

Current Time: Aug 30, 2015 at 11:55:22 AM

Latest Report: Aug 30, 2015 at 11:00 AM


Visibility: 2 mi

Pressure: 30.04 "Hg

Humidity: 14%

Dew point: 30 °F

Location of AktauLocation

Historic Weather in Aktau — Graph

°F

Aktau temperature yesterday

Maximum temperature yesterday: 84 °F (at 12:00 PM)
Minimum temperature yesterday: 57 °F (at 4:30 AM)
Average temperature yesterday: 71 °F

Past Weeks' High & Low Weather Summary

 TemperatureHumidityPressure
High99 °F (Aug 16, 2:00 PM)83% (Aug 18, 2:30 AM)30.18 "Hg (Aug 18, 2:30 AM)
Low52 °F (Aug 26, 4:00 AM)5% (Aug 16, 2:00 PM)29.62 "Hg (Aug 17, 2:00 AM)
Average75 °F33%29.96 "Hg
* Reported Aug 15 10:00 AM — Aug 30 10:30 AM, Aktau, Weather by CustomWeather, © 2015

Note: Actual official high and low records may vary slightly from our data, if they occured in-between our weather recording intervals... More about our weather records

Advertising

Aktau weather history for previous 24 hours

 ConditionsComfort  
Time TempWeatherWind HumidityBarometerVisibility
10:30 AM
Sun, Aug 30
81 °FSunny.15 mph15%30.04 "Hg10 mi
10:00 AM75 °FSunny.10 mph21%30.04 "Hg10 mi
9:30 AM72 °FSunny.10 mph23%30.04 "Hg10 mi
9:00 AM70 °FSunny.8 mph25%30.04 "Hg10 mi
8:30 AM66 °FClear.8 mph30%30.04 "Hg10 mi
7:30 AM55 °FClear.8 mph44%30.07 "Hg10 mi
7:00 AM54 °FClear.8 mph51%30.07 "Hg10 mi
6:30 AM54 °FClear.6 mph47%30.07 "Hg10 mi
6:00 AM54 °FClear.6 mph51%30.07 "Hg10 mi
5:30 AM55 °FClear.6 mph47%30.07 "Hg10 mi
5:00 AM55 °FClear.8 mph51%30.09 "Hg10 mi
4:30 AM55 °FClear.8 mph51%30.09 "Hg10 mi
4:00 AM55 °FClear.6 mph51%30.09 "Hg10 mi
3:30 AM57 °FClear.8 mph48%30.09 "Hg10 mi
3:00 AM57 °FClear.6 mph51%30.09 "Hg10 mi
2:30 AM57 °FClear.6 mph51%30.09 "Hg10 mi
2:00 AM59 °FClear.6 mph51%30.09 "Hg10 mi
1:30 AM61 °FClear.6 mph52%30.09 "Hg10 mi
1:00 AM63 °FClear.6 mph52%30.12 "Hg10 mi
12:30 AM61 °FClear.6 mph55%30.12 "Hg10 mi
12:00 AM61 °FClear.1 mph59%30.12 "Hg10 mi
11:30 PM
Sat, Aug 29
61 °FClear.3 mph59%30.12 "Hg10 mi
11:00 PM64 °FClear.3 mph52%30.15 "Hg10 mi
10:30 PM66 °FClear.1 mph56%30.15 "Hg10 mi
10:00 PM70 °FSunny.6 mph57%30.15 "Hg10 mi
9:30 PM70 °FSunny.6 mph53%30.15 "Hg10 mi
9:00 PM72 °FSunny.3 mph47%30.15 "Hg10 mi
8:30 PM73 °FSunny.6 mph41%30.15 "Hg10 mi
8:00 PM77 °FSunny.8 mph32%30.15 "Hg10 mi
7:30 PM79 °FSunny.10 mph26%30.15 "Hg10 mi
7:00 PM81 °FSunny.13 mph24%30.15 "Hg10 mi
6:30 PM82 °FSunny.15 mph20%30.15 "Hg10 mi
6:00 PM82 °FSunny.15 mph21%30.15 "Hg10 mi
5:30 PM84 °FSunny.15 mph15%30.15 "Hg10 mi
5:00 PM84 °FSunny.13 mph15%30.15 "Hg10 mi
4:30 PM84 °FSunny.13 mph18%30.15 "Hg10 mi
4:00 PM84 °FSunny.15 mph18%30.18 "Hg10 mi
3:00 PM84 °FPassing clouds.13 mph19%30.18 "HgN/A
2:30 PM84 °FSunny.13 mph18%30.18 "Hg10 mi
2:00 PM84 °FSunny.13 mph18%30.18 "Hg10 mi
1:30 PM84 °FPassing clouds.13 mph18%30.18 "HgN/A
1:00 PM84 °FSunny.13 mph18%30.18 "Hg10 mi
12:30 PM84 °FSunny.13 mph15%30.18 "Hg10 mi
12:00 PM84 °FPassing clouds.13 mph16%30.18 "HgN/A
11:00 AM82 °FPassing clouds.8 mph15%30.18 "HgN/A
Weather by CustomWeather, © 2015

See weather overviewHow to use our weather pages